Content
SEND FEEDBACK

Daily
Averages
Monthly
Summary
United States of America

RED WING, MINNESOTA


Home > North America > United States > Minnesota
Elevation: 783 feet     Latitude: 44 34N     Longitude: 092 33W

WEATHER
 
SELECT A DAY
Number of Records: 466,834;   Date Range: 1/1/95 - 9/29/14
 
SHARE

PRINT THIS DATA

[ ← Previous Day ]
WEATHER ALMANAC - JANUARY 23, 2013
[ Next Day → ]
[ °C ]   °F
Weather ElementAverageHighLow
Temperature8.8 °F19.4 °F (12:56 pm)-4 °F (11:55 pm)
Dewpoint-1.5 °F8.6 °F (9:16 am)-16.6 °F (7:55 pm)
Humidity64.1 %85 % (5:36 am)43 % (7:55 pm)
Barometer30.26 in30.59 in (11:55 pm)30.13 in (1:15 pm)
Wind Speed6.8 mph24.2 mph (3:15 pm)
Wind Gust28.8 mph (3:35 pm)
Weather ElementAverage
Visibility7.3 mi
Wind DirectionS (180.1 °)

Weather ElementTotal
Precipitation---
Heating Degree Days57.3 (Base 65)
Averaged from 71 records on January 23, 2013
WEATHER CONDITIONS BREAKOUT
WIND DIRECTION BREAKOUT
WEATHER BY HOUR - JANUARY 23, 2013
[ °C ]   °F
Local TimeTemperatureDewpointHumidityBarometerVisibilityWind DirectionWind SpeedGust SpeedPrecipitationEventsConditions
12:35 AM6.8 °F-2.2 °F67 %30.23 in10.0 miCalmOvercast
12:55 AM6.8 °F-2.2 °F67 %30.23 in10.0 miCalmOvercast
1:15 AM6.8 °F-2.2 °F67 %30.22 in10.0 miCalmOvercast
1:36 AM6.8 °F-2.2 °F67 %30.22 in10.0 miCalmOvercast
1:55 AM6.8 °F-2.2 °F67 %30.22 in10.0 miCalmOvercast
2:15 AM8.6 °F-2.2 °F62 %30.22 in10.0 miCalmOvercast
2:36 AM8.6 °F-0.4 °F67 %30.22 in10.0 miCalmOvercast
2:55 AM8.6 °F-0.4 °F67 %30.21 in10.0 miCalmOvercast
3:15 AM8.6 °F-0.4 °F67 %30.20 in10.0 miCalmOvercast
3:36 AM8.6 °F-0.4 °F67 %30.18 in10.0 miCalmOvercast
3:55 AM8.6 °F-0.4 °F67 %30.18 in7.0 miCalmOvercast
4:15 AM8.6 °F1.4 °F73 %30.17 in7.0 miCalmOvercast
4:36 AM8.6 °F1.4 °F73 %30.17 in5.0 miCalmSnowLight Snow
4:55 AM8.6 °F3.2 °F79 %30.16 in2.5 miCalmSnowLight Snow
5:15 AM8.6 °F3.2 °F79 %30.16 in2.5 miCalmSnowLight Snow
5:36 AM8.6 °F5.0 °F85 %30.15 in2.5 miCalmSnowLight Snow
5:55 AM8.6 °F5.0 °F85 %30.15 in2.0 miCalmSnowLight Snow
6:15 AM10.4 °F6.8 °F85 %30.15 in2.0 miCalmSnowLight Snow
6:34 AM10.4 °F6.8 °F85 %30.15 in2.5 miCalmSnowLight Snow
6:55 AM10.4 °F6.8 °F85 %30.15 in2.0 miCalmSnowLight Snow
7:15 AM10.4 °F6.8 °F85 %30.14 in2.0 miCalmSnowLight Snow
7:35 AM10.4 °F6.8 °F85 %30.15 in2.5 miCalmSnowLight Snow
7:55 AM10.4 °F6.8 °F85 %30.14 in1.2 miCalmSnowLight Snow
8:15 AM10.4 °F6.8 °F85 %30.14 in1.0 miCalmSnowLight Snow
8:35 AM10.4 °F6.8 °F85 %30.14 in1.8 miCalmSnowLight Snow
8:55 AM10.4 °F6.8 °F85 %30.14 in0.8 miCalmSnowLight Snow
9:16 AM12.2 °F8.6 °F85 %30.14 in1.0 miCalmSnowLight Snow
9:35 AM14.0 °F8.6 °F79 %30.15 in1.8 miWest (280°)3.5 mphSnowLight Snow
9:55 AM14.0 °F8.6 °F79 %30.15 in2.5 miWest (280°)6.9 mphSnowLight Snow
10:15 AM15.8 °F8.6 °F73 %30.15 in5.0 miWNW (290°)9.2 mphSnowLight Snow
10:35 AM15.8 °F8.6 °F73 %30.16 in7.0 miWNW (300°)6.9 mphOvercast
10:55 AM15.8 °F8.6 °F73 %30.16 in10.0 miWest (280°)8.1 mphMostly Cloudy
11:15 AM17.6 °F8.6 °F68 %30.15 in10.0 miWest (280°)9.2 mphScattered Clouds
11:35 AM17.6 °F8.6 °F68 %30.14 in10.0 miWNW (300°)10.4 mphScattered Clouds
11:55 AM17.6 °F8.6 °F68 %30.14 in10.0 miWNW (290°)13.8 mph21.9 mphOvercast
12:16 PM17.6 °F8.6 °F68 %30.14 in7.0 miWNW (300°)11.5 mph18.4 mphOvercast
12:35 PM17.6 °F8.6 °F68 %30.14 in3.0 miNW (310°)10.4 mph21.9 mphSnowLight Snow
12:56 PM19.4 °F8.6 °F63 %30.14 in4.0 miWNW (290°)12.7 mph19.6 mphSnowLight Snow
1:15 PM17.6 °F8.6 °F68 %30.13 in2.5 miNNW (330°)9.2 mphSnowLight Snow
1:36 PM17.6 °F5.0 °F58 %30.13 in10.0 miNNW (330°)12.7 mph21.9 mphOvercast
1:55 PM17.6 °F5.0 °F58 %30.14 in10.0 miNW (320°)11.5 mph20.7 mphMostly Cloudy
2:15 PM17.6 °F3.2 °F53 %30.15 in10.0 miNW (310°)18.4 mph23.0 mphScattered Clouds
2:35 PM15.8 °F5.0 °F62 %30.17 in4.0 miNW (320°)15.0 mph25.3 mphSnowLight Snow
2:55 PM15.8 °F1.4 °F53 %30.18 in10.0 miNNW (330°)15.0 mph21.9 mphMostly Cloudy
3:15 PM15.8 °F-0.4 °F49 %30.20 in10.0 miNW (320°)24.2 mph27.6 mphMostly Cloudy
3:35 PM15.8 °F1.4 °F53 %30.21 in7.0 miNW (310°)19.6 mph28.8 mphMostly Cloudy
3:55 PM12.2 °F3.2 °F67 %30.23 in1.5 miNNW (330°)17.3 mph27.6 mphSnowLight Snow
4:15 PM12.2 °F-0.4 °F57 %30.25 in10.0 miNNW (330°)16.1 mph23.0 mphScattered Clouds
4:35 PM10.4 °F-2.2 °F57 %30.28 in10.0 miNorth (350°)11.5 mph18.4 mphScattered Clouds
4:55 PM8.6 °F-5.8 °F52 %30.30 in10.0 miNNW (330°)12.7 mph23.0 mphScattered Clouds
5:15 PM6.8 °F-9.4 °F48 %30.32 in10.0 miNorth (350°)15.0 mph23.0 mphClear
5:35 PM6.8 °F-9.4 °F48 %30.35 in10.0 miNNW (340°)12.7 mph21.9 mphClear
5:55 PM6.8 °F-9.4 °F48 %30.37 in10.0 miNorth (350°)10.4 mph20.7 mphClear
6:15 PM5.0 °F-9.4 °F52 %30.39 in10.0 miNNW (340°)12.7 mph18.4 mphClear
6:35 PM5.0 °F-11.2 °F47 %30.41 in10.0 miNNW (340°)10.4 mph18.4 mphClear
6:55 PM3.2 °F-9.4 °F56 %30.42 in10.0 miNorth (350°)11.5 mph17.3 mphClear
7:15 PM3.2 °F-11.2 °F51 %30.42 in10.0 miNorth (360°)12.7 mph23.0 mphClear
7:35 PM1.4 °F-14.8 °F47 %30.45 in10.0 miNorth (10°)13.8 mph23.0 mphClear
7:55 PM1.4 °F-16.6 °F43 %30.46 in10.0 miNorth (10°)10.4 mph21.9 mphClear
8:15 PM1.4 °F-16.6 °F43 %30.48 in10.0 miNorth (360°)9.2 mph18.4 mphClear
8:35 PM-0.4 °F-16.6 °F46 %30.48 in10.0 miNorth (10°)8.1 mph18.4 mphClear
8:55 PM-0.4 °F-14.8 °F51 %30.50 in10.0 miNorth (360°)8.1 mphClear
9:15 PM-0.4 °F-14.8 °F51 %30.51 in10.0 miNorth (350°)5.8 mph16.1 mphClear
9:35 PM-0.4 °F-16.6 °F46 %30.51 in10.0 miNorth (360°)8.1 mphClear
9:55 PM-0.4 °F-16.6 °F46 %30.53 in10.0 miNorth (10°)9.2 mphClear
10:15 PM-2.2 °F-16.6 °F50 %30.53 in10.0 miNorth (360°)6.9 mphClear
10:35 PM-2.2 °F-16.6 °F50 %30.54 in10.0 miNorth (10°)8.1 mphClear
10:55 PM-2.2 °F-16.6 °F50 %30.56 in10.0 miNorth (360°)8.1 mphClear
11:15 PM-2.2 °F-16.6 °F50 %30.56 in10.0 miNorth (360°)5.8 mphClear
11:35 PM-2.2 °F-16.6 °F50 %30.58 in10.0 miNorth (350°)6.9 mphClear
11:55 PM-4.0 °F-16.6 °F55 %30.59 in10.0 miNNW (340°)5.8 mphClear
Hourly data recorded from KRGK, located miles away from Red Wing, Minnesota







STORIES FROM OUR PARTNERS